Regional Weather Roundup
Issued by NWS

Home | Current Version | Previous Version | Text Only | Print | Product List | Glossary Off
Versions: 1 2 3 4 5 6 7 8 9 10 11 12 13 14 15 16 17 18 19 20 21 22 23 24 25 26 27

000
ASUS45 KTFX 211410
RWRMT
MONTANA REGIONAL WEATHER ROUNDUP
NATIONAL WEATHER SERVICE GREAT FALLS MT
800 AM MDT SUN MAY 21 2017

NOTE: "FAIR" INDICATES FEW OR NO CLOUDS BELOW 12000 FEET WITH NO
SIGNIFICANT WEATHER AND/OR OBSTRUCTIONS TO VISIBILITY.

MTZ001>007-043-211500-
WEST OF THE DIVIDE

CITY           SKY/WX    TMP DP  RH WIND       PRES   REMARKS
KALISPELL      SUNNY     46  44  93 SE3       30.28R
MISSOULA       SUNNY     45  42  89 CALM      30.31S
BUTTE          SUNNY     38  35  89 CALM      30.32R
MULLAN PASS    SUNNY     48  36  63 CALM      30.31R
ANACONDA         N/A     45  37  76 CALM      30.30S
DEER LODGE       N/A     43  39  87 CALM      30.34R
EUREKA           N/A     48  43  81 CALM      30.29R
HAMILTON         N/A     45  39  81 S7        30.31S
LIBBY            N/A     43  43 100 CALM      30.29R
RONAN            N/A     48  44  86 CALM      30.29R
$$

MTZ008-052>055-211500-
SOUTHWEST MONTANA

CITY           SKY/WX    TMP DP  RH WIND       PRES   REMARKS
BOZEMAN        SUNNY     44  39  82 SE5       30.29R
DILLON         SUNNY     42  38  85 SW5       30.29R
W YELLOWSTONE  FOG       32  32 100 CALM      30.31R VSB<1/4
ENNIS          SUNNY     43  37  81 CALM      30.33S
THREE FORKS      N/A     42  41  97 CALM      30.25R
$$

MTZ009-010-012-014-046-048-049-054-211500-
EAST SLOPES AND CENTRAL MONTANA

CITY           SKY/WX    TMP DP  RH WIND       PRES   REMARKS
CUT BANK       SUNNY     50  40  68 W3        30.22R
GREAT FALLS    SUNNY     48  41  76 SW9       30.23R
HELENA         FOG       42  42 100 N3        30.28R VSB 1/4
AUGUSTA          N/A     52  37  57 W12G18    30.24R
BOWMANS CRNR     N/A     42  41  97 SW8       30.23S
CHOTEAU          N/A     50  39  66 SW7       30.25R
FAIRFIELD        N/A     49  40  73 NW3       30.22R
POWER            N/A     48  40  74 W3        30.22R
RAYNESFORD       N/A     45  41  85 CALM      30.24S
ULM              N/A     48  44  84 S5        30.24R
$$

MTZ011-013-016-021-045-047-050-051-211500-
NORTH CENTRAL MONTANA

CITY           SKY/WX    TMP DP  RH WIND       PRES   REMARKS
HAVRE          MOSUNNY   48  44  86 SW9       30.18R
LEWISTOWN      SUNNY     48  41  76 SW6       30.22R
N BAR RANCH      N/A     54  39  58 NW13      30.22R
CHINOOK          N/A     48  45  87 W5        30.17R
DENTON           N/A     49  45  87 MISG      30.17R
FORT BENTON      N/A    N/A N/A N/A MISG      30.22R
GEYSER           N/A     50  42  73 W10       30.22R
JUDITH GAP       N/A     48  38  68 N8        30.22R
STANFORD         N/A     51  40  65 NW14      30.22R
WINIFRED         N/A     49  43  78 W9        30.19R
$$

MTZ017>020-022>027-061-062-211500-
NORTHEAST MONTANA

CITY           SKY/WX    TMP DP  RH WIND       PRES   REMARKS
GLASGOW        PTSUNNY   53  40  61 NW12      30.09R
JORDAN           N/A     54  41  61 W7        30.11R
SIDNEY         SUNNY     50  35  56 S3        30.03S
WOLF POINT     CLOUDY    54  42  64 W9        30.06R
MALTA          SUNNY     50  41  71 S8        30.12S
PLENTYWOOD       N/A     52  34  50 W8        30.02S
POPLAR           N/A     52  39  62 W7        30.05R
$$

MTZ028>42-056>058-211500-
SOUTHCENTRAL AND SOUTHEAST MONTANA

CITY           SKY/WX    TMP DP  RH WIND       PRES   REMARKS
BAKER          SUNNY     50  34  54 W12       30.07R
BILLINGS       MOSUNNY   51  42  71 SW10      30.19R
LIVINGSTON     SUNNY     44  40  85 NW9       30.25R
MILES CITY     CLOUDY    54  41  61 NW13      30.10R
BIG TIMBER     SUNNY     48  41  76 W16       30.25S
FORSYTH          N/A     54  43  66 W8        30.13S
LAUREL           N/A     49  41  74 S3        30.17F
ROUNDUP          N/A     50  40  68 S8        30.08R
$$

REGIONAL REPORTS...DAKOTAS

CITY           SKY/WX    TMP DP  RH WIND       PRES   REMARKS
WILLISTON      SUNNY     53  37  54 CALM      30.01F
MINOT          MOSUNNY   51  37  58 SW9       30.00F
DICKINSON      SUNNY     52  31  44 W10       30.00S
BEACH            N/A     54  37  54 NW10      30.07S
TIOGA            N/A     55  36  47 NW9       30.01F
WATFORD CITY     N/A     48  34  57 CALM      30.01S
BISMARCK       PTSUNNY   46  36  68 W5        30.03F
GRAND FORKS    LGT RAIN  42  40  92 N14G22    29.92S
FARGO          CLOUDY    40  38  93 N14       29.90R
BUFFALO SD       N/A     55  32  41 W14       29.99S
RAPID CITY     SUNNY     55  38  52 VRB5      30.08R
$$

REGIONAL REPORTS...WYOMING/IDAHO/WASHINGTON

CITY           SKY/WX    TMP DP  RH WIND       PRES   REMARKS
GILLETTE       CLOUDY    48  42  80 W12       30.15R
SHERIDAN       CLOUDY    50  41  71 NW8       30.18R
BUFFALO WY     PTSUNNY   50  38  63 N17G25    30.19R
CODY           CLOUDY    48  42  80 CALM      30.24
YELLOWSTONE LA   N/A     34  33  96 CALM      30.32R
IDAHO FALLS    SUNNY     45  40  82 N10       30.23R
SALMON         SUNNY     45  39  81 CALM      30.28R
BOISE          SUNNY     53  43  68 E9        30.20R
SPOKANE        MOSUNNY   52  47  83 NE8       30.25R
$$

REGIONAL REPORTS...ALBERTA

CITY           SKY/WX    TMP DP  RH WIND       PRES   REMARKS
EDMONTON       SUNNY     57  37  47 NW5       30.12R
CALGARY        MOSUNNY   57  30  35 NW5       30.19R
LETHBRIDGE     MOSUNNY   55  39  54 W7        30.18R
MEDICINE HAT   MOSUNNY   54  41  62 SW8       30.15R
WATERTON GATE    N/A     54  36  50 SW15        N/A
CARDSTON         N/A     52  39  62 N2          N/A
MILK RIVER       N/A     52  39  62 W13         N/A
$$

REGIONAL REPORTS...SASKATCHEWAN

CITY           SKY/WX    TMP DP  RH WIND       PRES   REMARKS
SWIFT CURRENT  SUNNY     52  41  66 W9        30.10R
REGINA         MOSUNNY   54  41  62 N8        30.01S
SASKATOON      PTSUNNY   55  43  62 NW3       30.09S
VAL MARIE        N/A     54  41  62 NW12        N/A
ROCKGLEN         N/A     54  39  58 NW14G20     N/A
ASSINIBOIA       N/A     55  41  58 N7          N/A
$$




USA.gov is the U.S. government's official web portal to all federal, state and local government web resources and services.